Location: Unspecified
(41.1637°N, 24.2901°E)
Time: 10:09:16
(UTC+02:00)

ISS - Pass Details

Date: 09 September 2024
Orbit: 415 x 426 km, 51.6° (Epoch: 09 September)

Event Time Altitude Azimuth Distance (km) Brightness Sun altitude
Exits shadow 04:45:45 16° 201° (SSW) 1,205 -1.8 -13.9°
Drops below altitude 10° 04:47:00 10° 182° (S) 1,507 -1.2 -13.7°
Sets 04:49:30 0° 163° (SSE) 2,367 0.0 -13.3°
